Weather History for Leadville, CO

Change the Weather History Date:

Monday, December 31, 2012

  Actual Average Record
Temperature  
Mean Temperature 9 °F -  
Max Temperature 20 °F 29 °F 42 °F (1996)
Min Temperature -2 °F 4 °F -17 °F (2010)
Degree Days  
Heating Degree Days 56 49  
Month to date heating degree days 1514 1501  
Since 1 July heating degree days 4534 4901  
Cooling Degree Days 0 0  
Month to date cooling degree days 0 0  
Year to date cooling degree days 0 0  
Moisture  
Dew Point 2 °F    
Average Humidity 78    
Maximum Humidity 91    
Minimum Humidity 64    
Precipitation  
Precipitation 0.05 in 0.02 in 0.70 in (1977)
Month to date precipitation 0.95 0.75  
Year to date precipitation 11.25 12.45  
Sea Level Pressure  
Sea Level Pressure 29.79 in    
Wind  
Wind Speed 5 mph (NNE)    
Max Wind Speed 15 mph    
Max Gust Speed 20 mph    
Visibility 6 miles    
Events Snow    
T = Trace of Precipitation, MM = Missing Value Source: NWS Daily Summary

Daily Weather History Graph

Daily Weather History Graph

Search for Another Location

Airport:

Trip Planner

Search our weather history database for the weather conditions in past years. The results will help you decide how hot, cold, wet, or windy it might be!

Date:

Astronomy

Dec. 31, 2012 Rise Set
Actual Time 7:24 AM MST 4:52 PM MST
Civil Twilight 6:54 AM MST 5:22 PM MST
Nautical Twilight 6:21 AM MST 5:56 PM MST
Astronomical Twilight 5:48 AM MST 6:28 PM MST
Moon 8:24 PM MST (12/31) 9:09 AM MST (12/31)
Length of Visible Light 10h 27m
Length of Day
9h 27m
Waning Gibbous, 90% of the Moon is Illuminated
Dec 31
Waning Gibbous
Jan 4
Last Quarter
Jan 11
New
Jan 18
First Quarter
Jan 26
Full

Hourly Weather History & Observations

Time (MST) Temp. Windchill Dew Point Humidity Pressure Visibility Wind Dir Wind Speed Gust Speed Precip Events Conditions
12:53 AM 10.0 °F -2.9 °F 1.0 °F 67% 29.80 in 4.0 mi SSW 9.2 mph - 0.00 in Snow Light Snow
1:03 AM 8.6 °F -3.7 °F 3.2 °F 79% 29.78 in 1.8 mi SSW 8.1 mph - 0.00 in Snow Light Snow
1:53 AM 8.1 °F - 5.0 °F 87% 29.78 in 1.0 mi Calm Calm - 0.02 in Snow Light Snow
2:22 AM 6.8 °F - 3.2 °F 85% 29.77 in 1.8 mi Calm Calm - 0.01 in Snow Light Snow
2:53 AM 7.0 °F - 5.0 °F 92% 29.78 in 1.5 mi Calm Calm - 0.01 in Snow Light Snow
3:20 AM 6.8 °F - 3.2 °F 85% 29.76 in 2.0 mi Calm Calm - 0.00 in Snow Light Snow
3:30 AM 6.8 °F - 3.2 °F 85% 29.75 in 3.0 mi Calm Calm - 0.00 in Snow Light Snow
3:41 AM 6.8 °F - 3.2 °F 85% 29.75 in 2.5 mi Calm Calm - 0.00 in Snow Light Snow
3:49 AM 6.8 °F - 3.2 °F 85% 29.75 in 0.8 mi Calm Calm - 0.01 in Snow Light Snow
3:53 AM 6.1 °F - 3.0 °F 87% 29.78 in 0.8 mi Calm Calm - 0.01 in Snow Light Snow
3:59 AM 6.8 °F - 1.4 °F 79% 29.75 in 1.8 mi Calm Calm - 0.00 in Snow Light Snow
4:03 AM 6.8 °F - 1.4 °F 79% 29.75 in 3.0 mi Calm Calm - 0.00 in Snow Light Snow
4:15 AM 5.0 °F - 1.4 °F 85% 29.74 in 10.0 mi Calm Calm - 0.00 in   Overcast
4:40 AM 5.0 °F - 1.4 °F 85% 29.74 in 2.0 mi Calm Calm - 0.00 in   Overcast
4:50 AM 3.2 °F -4.2 °F 1.4 °F 92% 29.74 in 2.5 mi NE 3.5 mph - 0.00 in Snow Light Snow
4:53 AM 3.9 °F -3.4 °F 1.0 °F 88% 29.78 in 1.5 mi NE 3.5 mph - 0.00 in Snow Light Snow
5:09 AM 3.2 °F -4.2 °F -0.4 °F 85% 29.73 in 2.5 mi NE 3.5 mph - 0.00 in Snow Light Snow
5:44 AM 1.4 °F -8.3 °F -2.2 °F 85% 29.72 in 3.0 mi NE 4.6 mph - 0.00 in   Overcast
5:53 AM 1.0 °F -8.7 °F -2.9 °F 83% 29.79 in 4.0 mi NE 4.6 mph - 0.00 in   Overcast
6:21 AM 1.4 °F -6.2 °F -2.2 °F 85% 29.72 in 10.0 mi ENE 3.5 mph - N/A   Scattered Clouds
6:53 AM 3.0 °F -4.4 °F -0.0 °F 87% 29.81 in 10.0 mi ESE 3.5 mph - N/A   Overcast
7:36 AM 1.4 °F -6.2 °F -2.2 °F 85% 29.73 in 1.8 mi North 3.5 mph - 0.00 in Snow Light Snow
7:45 AM 1.4 °F -6.2 °F -2.2 °F 85% 29.73 in 1.0 mi NE 3.5 mph - 0.01 in Snow Light Snow
7:53 AM 3.0 °F - -0.9 °F 84% 29.82 in 1.2 mi Calm Calm - 0.01 in Snow Light Snow
8:25 AM 5.0 °F - 1.4 °F 85% 29.74 in 3.0 mi Calm Calm - 0.00 in   Overcast
8:32 AM 5.0 °F - 1.4 °F 85% 29.74 in 5.0 mi Calm Calm - 0.00 in   Overcast
8:42 AM 3.2 °F - -0.4 °F 85% 29.74 in 4.0 mi Calm Calm - 0.00 in   Overcast
8:53 AM 3.9 °F -3.4 °F -0.0 °F 84% 29.83 in 8.0 mi North 3.5 mph - 0.00 in   Mostly Cloudy
9:27 AM 8.6 °F - 3.2 °F 79% 29.75 in 10.0 mi Calm Calm - N/A   Mostly Cloudy
9:34 AM 10.4 °F - 3.2 °F 73% 29.75 in 10.0 mi Calm Calm - N/A   Scattered Clouds
9:53 AM 10.0 °F - 3.0 °F 73% 29.80 in 10.0 mi Calm Calm - N/A   Partly Cloudy
10:11 AM 10.4 °F - 3.2 °F 73% 29.75 in 10.0 mi Calm Calm - N/A   Mostly Cloudy
10:53 AM 14.0 °F - 3.9 °F 64% 29.77 in 10.0 mi Calm Calm - N/A   Scattered Clouds
11:53 AM 12.9 °F - 6.1 °F 74% 29.75 in 10.0 mi Calm Calm - N/A   Partly Cloudy
12:53 PM 17.1 °F - 8.1 °F 68% 29.69 in 10.0 mi Calm Calm - N/A   Overcast
1:53 PM 17.1 °F 10.0 °F 8.1 °F 68% 29.71 in 10.0 mi South 4.6 mph - N/A   Overcast
2:53 PM 17.1 °F 5.0 °F 10.9 °F 77% 29.75 in 10.0 mi North 10.4 mph - N/A   Overcast
3:35 PM 15.8 °F 2.7 °F 8.6 °F 73% 29.72 in 3.0 mi NNW 11.5 mph - 0.00 in Snow Light Snow
3:53 PM 16.0 °F 4.4 °F 8.1 °F 71% 29.79 in 8.0 mi NNW 9.2 mph - 0.00 in   Overcast
4:53 PM 14.0 °F 0.5 °F 6.1 °F 71% 29.84 in 10.0 mi NNW 11.5 mph - N/A   Overcast
5:26 PM 12.2 °F -0.2 °F 6.8 °F 79% 29.76 in 10.0 mi NNW 9.2 mph - N/A   Overcast
5:44 PM 10.4 °F -0.4 °F 5.0 °F 79% 29.77 in 10.0 mi NNW 6.9 mph - N/A   Overcast
5:53 PM 10.0 °F -0.9 °F 3.9 °F 76% 29.90 in 10.0 mi NNW 6.9 mph - N/A   Overcast
6:53 PM 6.1 °F -5.6 °F 1.9 °F 83% 29.94 in 10.0 mi NNW 6.9 mph - N/A   Scattered Clouds
7:53 PM 3.0 °F -10.5 °F -0.0 °F 87% 29.99 in 10.0 mi NNE 8.1 mph - N/A   Partly Cloudy
8:53 PM 1.0 °F -14.0 °F -2.9 °F 83% 30.00 in 10.0 mi NE 9.2 mph - N/A   Clear
9:53 PM 1.0 °F -10.3 °F -2.9 °F 83% 29.97 in 10.0 mi NNE 5.8 mph - N/A   Clear
10:19 PM -0.4 °F -13.4 °F -4.0 °F 85% 29.84 in 10.0 mi NE 6.9 mph - N/A   Mostly Cloudy
10:26 PM -0.4 °F -13.4 °F -4.0 °F 85% 29.85 in 10.0 mi NNE 6.9 mph - N/A   Scattered Clouds
10:53 PM -0.0 °F -14.2 °F -4.0 °F 83% 29.97 in 10.0 mi NNE 8.1 mph - N/A   Mostly Cloudy
11:53 PM -2.0 °F -17.7 °F -6.0 °F 83% 29.99 in 10.0 mi NE 9.2 mph - N/A   Mostly Cloudy